W4IIA-13 Weather Reports


Display with metric or nautical units.
time (UTC)temp
F
wind
direction
speed
MPH
gust
MPH
rain 1hr
in
rain 24hr
in
rain mn
in
humidity
%
barometer
mb
20210728062631 74 213 0.0 0.0 0.00 0.00 0.00 86 1019.7
20210728062344 74 213 0.0 0.0 0.00 0.00 0.00 86 1019.7
20210728055343 74 213 0.0 0.0 0.00 0.00 0.00 85 1019.9
20210728052342 74 213 0.0 0.0 0.00 0.00 0.00 85 1019.9
20210728045341 75 213 0.0 0.0 0.00 0.00 0.00 84 1020.3
20210728042340 76 213 0.0 0.0 0.00 0.00 0.00 83 1019.8
20210728035339 76 213 0.0 0.0 0.00 0.00 0.00 82 1020.0
20210728032338 77 213 0.0 0.0 0.00 0.00 0.00 81 1020.2
20210728025337 78 213 0.0 0.0 0.00 0.00 0.00 80 1020.1
20210728022336 79 213 0.0 0.0 0.00 0.00 0.00 78 1020.2
20210728015336 80 213 0.0 0.0 0.00 0.00 0.00 76 1019.8
20210728012335 82 213 0.0 0.0 0.00 0.00 0.00 75 1019.7
20210728005334 83 213 0.0 2.0 0.00 0.00 0.00 73 1019.1
20210728002333 85 212 0.0 2.0 0.00 0.00 0.00 70 1018.8
20210727235332 86 212 0.0 0.0 0.00 0.00 0.00 70 1018.9
20210727232331 88 153 0.0 0.0 0.00 0.00 0.00 68 1018.8
20210727225330 89 199 0.0 0.0 0.00 0.00 0.00 66 1018.6
20210727222329 89 169 0.0 0.0 0.00 0.00 0.00 64 1018.7
20210727215328 89 160 0.0 0.0 0.00 0.00 0.00 61 1018.9
20210727212328 89 145 0.0 0.0 0.00 0.00 0.00 62 1018.8
20210727205327 90 231 0.0 0.0 0.00 0.00 0.00 63 1019.2
20210727202326 87 202 0.0 0.0 0.00 0.00 0.00 67 1019.4
20210727195325 89 206 0.0 2.0 0.00 0.00 0.00 63 1019.3
20210727192324 90 259 0.0 2.0 0.00 0.00 0.00 62 1019.7
20210727185323 91 248 0.0 3.0 0.00 0.00 0.00 60 1019.8
20210727182322 91 205 0.0 3.0 0.00 0.00 0.00 59 1020.0
20210727175321 89 173 0.0 2.0 0.00 0.00 0.00 64 1020.1
20210727172320 88 265 0.0 2.0 0.00 0.00 0.00 65 1020.4
20210727165319 87 356 0.0 2.0 0.00 0.00 0.00 69 1020.6
20210727162318 86 284 0.0 2.0 0.00 0.00 0.00 70 1020.9
20210727155318 84 126 0.0 0.0 0.00 0.00 0.00 73 1021.0
20210727152317 82 79 0.0 0.0 0.00 0.00 0.00 77 1021.1
20210727145316 81 194 0.0 4.0 0.00 0.00 0.00 79 1021.0
20210727142315 78 301 0.0 4.0 0.00 0.00 0.00 83 1021.0
20210727135314 77 49 0.0 1.0 0.00 0.00 0.00 85 1021.1
20210727132313 76 298 0.0 1.0 0.00 0.00 0.00 86 1021.1
20210727125312 75 40 0.0 0.0 0.00 0.00 0.00 88 1020.9
20210727122311 74 75 0.0 0.0 0.00 0.00 0.00 90 1020.8
20210727115310 73 201 0.0 0.0 0.00 0.00 0.00 91 1020.8
20210727112309 72 206 0.0 0.0 0.00 0.00 0.00 91 1020.9
20210727105309 71 206 0.0 0.0 0.00 0.00 0.00 91 1020.8
20210727102308 71 206 0.0 0.0 0.00 0.00 0.00 90 1020.4
20210727095307 72 206 0.0 0.0 0.00 0.00 0.00 91 1020.4
20210727092306 71 210 0.0 0.0 0.00 0.00 0.00 91 1020.1
20210727085305 71 210 0.0 0.0 0.00 0.00 0.00 90 1020.1
20210727082306 71 210 0.0 0.0 0.00 0.00 0.00 89 1019.9
20210727075305 72 210 0.0 0.0 0.00 0.00 0.00 89 1019.6
20210727072304 72 210 0.0 0.0 0.00 0.00 0.00 89 1019.2
20210727065301 72 210 0.0 0.0 0.00 0.00 0.00 88 1019.3